Aérodrome :
LOGIN :

S'inscrire | Disclaimer

   EN    FR    IT 

 










Légende :    VFR   VFR Marginal   IFR   IFR Intensif   IFR Très Intensif
Visi : 
Plafond : 
>= 8 km
>= 3000ft
5 à 8 km
1000 à 3000 ft
1500m à 5 km
500 à 1000 ft
800 à 1500m
200 à 500 ft
< 800m
< 200 ft
Symboles :   Orages  Brouillard  Fortes neiges  Fortes précipitations  Vent > 20 kt
SIGMETs :   Divers  Orages  Givrage  Turbulence  Onde Orograph.  Cendres Volcan.







- Altitude de l'aérodrome : 755 ft
- Code IATA : DRS


EDDC - Dresden Klotzsche

DERNIER METAR :
  • 192250Z 15006KT CAVOK 12/09 Q1014

METARs EXPIRÉS :
  • 192220Z 14006KT CAVOK 12/09 Q1014
  • 192150Z 15006KT CAVOK 11/09 Q1015
  • 192120Z 15006KT CAVOK 11/09 Q1015
  • 192050Z 14006KT 110V170 CAVOK 11/08 Q1015
  • 192020Z 15007KT CAVOK 10/08 Q1015

TAF TAF EDDC
Valide du 19 à 18h jusqu'au 20 à 18h UTC


191700Z 1918/2018 14007KT CAVOK
BECMG 1918/1920 15013KT
Pas de NOTAMs connus pour ce terrain.



MET'MAP, la Météo Aéronautique d'un coup d'oeil ! - Copyright ORBIFLY Décembre 2007 - Disclaimer

ORBIFLY MET'MAP TEAM :

Programmation & Développement : Alexandra Zaïnal
Conception & Développement : Baudouin d'Aumeries
Co-Programmation & Développement : Marc-Olivier Méhu
Soutien technique & logistique : Manuel Goepfert

Contact : metmap@orbifly.com




SOURCES & CREDITS :

   NOAA